GEFSMA_500_meanwind_006.txt.gz
Wind_Speed
29 32 35 34 33 33 33 34 35 36 36 35 34 34 33 33 34 34 35 36 37 38 39 40 42 42 42 43 43 44 44 46 46 46 47 48 48 48 48 47 47 46 46
32 32 30 29 30 32 33 34 35 36 35 34 33 33 34 35 35 36 37 38 39 40 40 41 43 44 46 47 47 48 50 52 53 53 53 54 54 55 54 54 54 53 53
31 28 26 26 28 30 32 35 36 37 36 35 34 35 36 37 37 38 40 41 42 42 43 44 46 48 49 50 52 53 55 56 57 58 59 58 58 59 59 59 60 60 60
28 26 26 28 30 33 35 38 40 39 37 36 36 37 38 39 40 41 42 43 44 45 47 48 49 51 53 55 58 60 61 62 64 65 66 66 66 66 66 66 66 66 66
27 28 30 33 35 37 39 41 42 41 39 38 38 39 40 41 41 43 44 46 47 49 51 54 56 59 61 63 65 67 68 69 70 71 72 73 74 74 73 73 72 72 73
30 32 34 37 39 40 41 43 43 42 40 38 38 39 41 42 43 45 48 51 53 56 59 61 64 65 67 69 70 71 71 72 73 74 75 77 78 78 78 79 79 79 79
32 35 38 41 42 42 43 43 41 40 39 38 38 40 43 45 48 51 54 56 59 63 66 68 69 70 71 72 74 74 75 76 77 78 80 81 82 83 84 85 86 87 87
34 38 42 43 43 43 42 39 37 37 39 41 42 44 45 47 51 55 58 61 64 66 68 70 71 72 73 74 75 76 76 77 78 79 82 84 86 88 90 92 93 94 94
39 42 43 42 42 40 37 37 38 40 43 46 48 50 52 53 54 56 60 64 66 67 68 69 70 72 74 75 76 78 79 81 82 83 85 87 89 91 94 96 98 99 100
40 41 41 40 39 38 39 40 42 44 46 49 53 58 61 65 67 66 63 63 64 66 67 69 71 73 75 77 79 82 84 86 88 90 92 94 96 97 99 100 102 103 104
40 40 39 39 39 40 41 44 46 48 51 54 57 60 64 68 72 74 73 69 66 66 67 70 74 78 81 84 86 89 91 94 96 99 102 104 105 106 106 106 106 106 108
39 38 39 39 40 41 43 46 49 52 56 59 62 64 66 68 68 70 72 73 73 72 73 77 82 86 90 93 96 100 102 105 107 109 110 111 112 111 111 110 109 108 108
38 38 39 40 42 43 46 49 52 56 59 62 65 67 68 68 69 70 72 75 77 79 82 85 90 95 100 103 107 110 113 114 115 114 112 111 109 106 104 103 102 102 101
38 39 41 43 45 47 50 53 57 60 63 65 66 66 66 66 69 73 78 82 84 85 87 91 97 103 108 112 115 118 118 117 114 110 106 102 98 95 92 91 90 90 91
39 41 43 45 48 51 54 58 62 64 65 65 65 65 67 70 74 79 84 90 95 96 94 98 104 109 114 118 118 115 111 107 101 96 91 88 86 84 83 82 82 82 82
42 44 46 48 51 55 59 63 65 66 65 65 66 68 71 76 80 85 90 96 102 107 107 106 111 115 116 113 106 101 94 89 84 81 80 80 81 81 80 78 76 75 74
45 47 50 52 56 60 64 66 67 65 64 66 69 73 78 82 87 92 98 103 108 114 118 117 115 110 102 93 85 79 75 75 77 80 82 81 80 77 74 71 70 69 69
48 50 53 56 60 64 67 67 65 64 66 69 74 79 84 89 94 100 106 111 116 119 121 117 104 89 79 73 69 67 68 73 78 80 77 73 71 68 66 65 65 65 65
51 53 57 61 65 67 67 65 64 66 70 75 81 87 92 98 103 109 115 118 120 116 108 98 86 74 68 65 65 66 68 70 70 68 65 63 61 59 58 59 60 60 61
53 56 61 65 68 68 66 64 66 70 76 82 88 94 100 106 112 117 119 119 113 102 90 82 77 72 68 67 68 69 65 59 53 51 50 50 50 51 51 53 53 53 53
56 61 65 68 69 67 65 66 70 76 82 88 94 101 107 113 118 119 116 108 99 90 83 79 77 74 70 69 68 65 57 47 40 43 46 45 47 47 47 46 43 42 41
61 65 68 68 66 65 66 70 76 82 88 94 100 107 113 117 116 110 102 95 90 86 82 79 75 71 66 64 60 52 47 41 34 36 42 40 44 42 39 35 30 26 25
64 67 67 65 65 67 70 76 82 87 94 101 107 113 116 113 106 98 91 87 83 77 73 69 63 57 54 49 46 42 39 36 32 33 35 34 36 33 27 20 14 13 14
65 65 63 63 66 71 76 81 86 93 99 106 112 114 110 102 93 88 85 80 72 63 56 51 46 42 39 37 37 36 32 28 26 31 32 28 26 23 16 9 7 9 13
62 60 62 65 70 75 80 86 91 97 104 109 110 106 98 91 85 80 76 68 57 46 39 35 33 31 32 34 34 31 27 24 24 27 28 24 21 16 11 9 9 11 15
57 60 64 69 74 79 85 91 98 103 107 107 101 92 86 81 76 70 63 52 40 31 26 24 25 28 30 31 30 28 26 24 22 23 24 22 19 15 12 13 14 15 16

GEFSMA_500_meanwind_012.txt.gz
Wind_Speed
26 26 29 30 32 32 30 26 25 26 27 29 31 33 35 37 38 38 37 36 36 36 36 37 38 39 40 41 41 41 41 41 42 42 43 43 44 44 45 45 46 46 47
27 28 29 31 32 31 28 25 26 28 31 33 35 37 39 40 40 39 38 37 38 38 39 39 40 41 42 43 44 44 45 45 46 46 47 47 48 48 49 49 50 51 51
26 28 30 31 32 30 28 27 29 31 35 38 40 42 44 44 43 40 38 38 39 39 40 41 42 43 44 45 47 48 49 50 51 52 53 54 55 55 56 56 57 58 58
24 27 29 31 32 31 30 30 32 35 38 41 43 44 44 43 41 39 38 38 39 40 42 43 45 46 47 49 50 51 53 55 56 58 59 60 61 62 62 63 63 63 64
24 28 31 32 32 31 31 32 35 38 40 41 42 41 40 39 38 38 39 40 41 43 45 46 48 49 51 53 55 56 58 59 61 62 63 63 64 65 65 66 67 67 68
26 30 32 32 30 30 32 35 38 39 40 40 40 39 37 38 39 40 42 44 45 47 48 50 52 54 56 58 60 61 62 63 63 64 64 64 65 65 66 66 67 68 69
28 30 31 30 31 32 35 38 40 41 40 39 38 39 40 40 42 43 45 47 50 52 54 56 58 59 61 62 63 64 64 64 64 63 64 64 65 66 67 67 68 69 70
30 32 32 32 34 36 38 40 42 42 41 40 39 40 41 43 45 48 50 52 55 58 60 61 62 64 65 65 65 64 64 65 66 66 68 69 70 71 73 74 75 75 76
33 35 35 36 37 39 41 42 43 43 43 42 42 43 44 44 45 47 52 56 59 61 63 64 65 65 65 65 65 66 67 69 71 73 76 77 79 80 82 83 84 84 85
37 38 39 40 41 43 43 43 43 43 43 44 45 47 50 52 53 52 53 57 60 61 61 62 63 63 65 67 69 71 73 76 79 82 84 86 88 90 91 92 94 94 94
40 41 42 43 44 44 44 44 43 43 44 47 49 52 54 57 60 62 60 60 61 61 61 62 63 65 67 71 74 77 81 83 86 89 92 95 98 100 102 103 104 105 106
42 43 44 45 44 44 44 44 43 45 48 51 54 57 60 62 64 66 66 65 65 64 64 65 67 70 74 78 81 85 89 92 95 98 102 105 108 110 113 114 116 117 118
42 43 45 45 43 44 44 44 45 48 52 56 59 62 65 67 69 71 72 70 69 69 70 71 74 78 82 86 90 94 98 103 106 110 113 117 119 121 122 123 123 123 122
42 44 45 44 43 44 44 46 49 52 56 60 63 66 69 71 74 75 75 75 74 73 74 76 80 85 91 96 101 106 110 115 119 122 124 126 125 124 121 117 114 110 107
42 43 43 43 44 44 46 49 52 56 59 63 66 69 72 75 76 76 76 77 79 80 80 81 87 93 100 107 113 118 123 126 127 125 121 117 111 104 98 93 90 87 85
41 42 42 43 45 47 49 52 56 59 63 66 69 72 75 77 76 76 77 79 83 86 89 91 97 103 110 117 123 127 127 124 119 112 105 98 92 86 82 78 76 74 73
41 41 43 45 48 51 53 56 59 63 65 69 72 76 76 76 75 77 80 84 89 95 100 101 106 111 117 120 120 116 111 105 100 94 89 85 81 77 74 72 70 69 68
41 42 44 48 51 54 57 60 62 64 68 72 75 76 75 75 77 80 85 91 97 103 109 112 114 115 112 107 100 93 87 83 79 75 71 68 64 62 61 60 61 61 62
41 44 48 51 54 57 59 60 63 67 72 74 74 74 75 77 81 86 92 98 103 109 114 117 113 105 94 84 76 68 63 59 56 55 52 49 47 46 46 47 48 50 50
44 48 51 54 56 57 60 64 68 71 73 72 72 74 77 81 86 92 98 104 110 112 111 106 97 83 70 60 55 49 43 41 40 41 40 38 37 37 38 39 40 41 42
47 51 54 55 56 60 64 68 70 71 70 71 73 76 81 87 92 98 105 110 110 106 97 87 74 61 52 46 41 38 35 33 34 37 34 34 35 35 36 36 36 36 37
50 52 54 56 60 64 67 70 70 69 71 73 76 81 87 93 98 104 109 108 100 90 79 66 56 48 43 39 37 34 33 31 30 32 31 31 33 33 35 36 36 35 34
51 54 57 60 63 66 69 69 68 70 72 76 82 87 93 98 104 107 105 94 81 70 61 53 47 42 38 36 33 30 29 29 30 32 29 27 31 33 35 36 34 30 27
54 56 59 62 65 66 66 67 69 71 76 82 88 93 98 102 105 103 92 78 63 54 49 46 44 40 36 34 32 29 27 25 28 34 35 32 32 33 34 34 30 24 20
54 57 60 63 64 63 65 67 71 75 81 87 93 98 102 104 100 90 76 61 49 43 42 42 40 37 36 35 34 32 29 26 26 31 36 36 35 32 31 30 25 19 17
55 58 61 61 61 63 66 70 75 80 86 91 96 100 102 97 85 72 59 47 39 38 37 36 35 34 35 34 35 35 33 31 31 31 33 33 32 29 25 26 20 16 15

GEFSMA_500_meanwind_018.txt.gz
Wind_Speed
31 30 31 30 30 29 29 29 29 29 29 28 26 26 27 28 31 33 35 36 37 37 36 35 34 35 35 36 36 37 38 38 39 40 41 41 42 42 42 42 42 42 42
31 30 30 30 30 30 30 30 30 31 31 30 29 30 31 32 34 36 37 37 37 36 35 34 34 34 35 37 38 39 41 42 42 43 44 44 45 46 46 47 47 47 47
31 30 30 30 31 31 31 30 31 32 32 31 31 32 33 35 37 38 38 38 37 37 36 36 36 37 38 40 41 43 44 45 47 48 48 49 49 50 50 51 52 52 52
31 30 30 31 31 31 31 31 32 33 33 32 32 33 35 38 39 39 39 39 39 38 38 39 40 41 43 44 46 47 49 50 52 53 54 55 55 56 56 57 57 57 58
33 32 32 32 32 32 32 32 33 33 33 33 33 35 37 39 40 40 40 40 40 41 42 43 44 46 47 49 51 52 54 55 57 58 59 60 60 60 61 61 62 62 62
34 34 34 34 33 33 33 33 33 33 34 35 36 38 40 41 42 42 42 42 42 44 45 47 49 51 52 54 55 57 58 60 61 62 62 63 63 64 64 65 66 66 66
36 36 36 35 34 34 35 34 34 34 36 38 40 42 43 43 44 44 44 44 45 47 49 51 53 55 57 58 59 60 61 62 63 64 65 65 66 67 68 69 69 70 70
37 38 37 36 36 37 37 36 37 38 39 41 43 46 47 46 46 47 47 47 48 51 53 56 58 60 61 62 63 63 64 65 66 67 68 69 70 71 72 73 73 74 75
38 38 38 38 39 39 39 39 40 42 43 44 46 47 48 48 47 48 50 51 53 56 58 61 63 65 66 67 67 68 69 70 71 72 73 74 75 76 77 78 79 80 81
37 38 39 40 42 42 42 42 44 45 46 47 48 49 49 50 50 48 49 53 56 58 61 64 66 68 70 71 72 73 73 73 74 74 75 77 79 80 82 84 86 87 89
38 39 40 42 43 44 44 45 46 47 49 50 50 50 50 52 53 53 53 55 58 60 62 65 68 70 72 73 74 73 73 74 75 77 79 81 83 85 88 90 92 94 96
40 40 41 43 44 45 46 47 48 49 50 51 51 51 52 53 54 57 59 60 61 63 65 67 69 71 73 73 73 73 74 76 78 80 82 85 88 92 95 98 101 103 106
41 42 43 44 46 47 47 48 48 50 51 51 51 52 53 55 58 61 64 65 66 67 69 70 71 71 71 72 74 76 77 80 83 86 90 95 99 103 106 109 112 114 117
41 42 43 45 46 47 47 48 49 51 51 51 52 54 56 59 62 64 66 68 70 71 73 74 74 75 77 78 79 81 84 88 92 97 102 106 110 112 113 112 111 111 111
41 42 43 44 45 46 47 48 49 51 51 52 54 57 60 62 64 66 69 72 74 74 73 74 76 78 80 83 86 91 95 100 105 109 111 111 109 103 96 89 85 84 84
41 42 42 43 44 45 47 48 50 51 52 54 57 60 62 64 66 69 72 73 74 75 76 75 78 81 86 90 96 102 106 110 112 110 105 96 86 76 69 65 62 62 62
40 41 42 43 44 46 48 49 50 51 54 57 60 62 64 67 70 71 72 74 75 77 77 77 82 87 93 99 105 109 110 107 100 89 79 70 62 58 54 51 49 49 50
40 41 42 43 45 47 48 49 51 54 57 60 62 65 67 69 70 72 73 75 76 79 81 83 88 95 101 107 108 105 97 86 74 65 60 55 52 48 45 43 44 45 46
40 41 42 44 46 47 48 51 54 57 60 62 64 66 68 69 71 73 74 76 79 83 88 93 97 102 105 105 98 87 73 63 57 53 51 49 46 43 42 43 44 44 44
41 41 43 45 46 48 51 54 57 60 62 64 66 68 69 71 72 74 76 80 85 90 96 102 105 105 100 90 78 65 54 50 47 46 46 44 42 42 43 44 45 46 45
40 41 44 45 47 51 54 57 59 61 63 65 67 69 70 71 73 77 81 87 92 98 104 107 104 96 82 69 58 49 44 41 40 43 42 41 41 42 44 45 46 47 47
40 42 44 47 50 53 56 58 61 63 65 67 68 69 71 73 77 82 88 94 100 104 105 100 90 76 62 52 45 41 39 36 35 38 39 38 40 41 43 43 43 43 43
40 43 46 49 53 55 57 60 62 64 66 68 69 70 73 77 83 88 94 100 103 101 94 83 69 57 49 44 39 37 35 34 34 37 37 35 38 39 40 38 37 36 36
42 45 49 51 54 56 59 61 63 65 66 68 70 73 78 83 90 95 99 101 96 86 74 63 55 47 43 40 38 36 34 32 33 36 37 35 35 36 35 32 30 29 29
44 47 50 52 54 57 60 62 63 64 66 69 73 78 84 90 95 100 99 93 80 67 57 51 46 43 41 40 38 37 36 35 32 33 36 35 34 31 31 27 25 25 26
46 48 50 53 55 58 60 61 63 64 67 72 78 84 90 95 99 97 89 76 61 52 47 44 43 42 40 40 40 40 39 38 35 32 32 32 30 26 23 25 23 24 26

GEFSMA_500_meanwind_024.txt.gz
Wind_Speed
30 29 28 28 29 30 31 32 33 34 35 35 35 35 33 33 33 32 33 33 33 33 32 33 33 34 34 33 32 31 31 31 31 31 32 34 35 36 37 37 38 39 40
33 32 31 30 30 31 32 33 34 34 34 35 36 36 35 35 34 33 34 34 34 34 34 35 35 35 36 35 35 34 34 34 35 36 37 38 39 40 41 41 42 43 43
34 34 33 32 32 33 33 34 34 35 35 35 36 36 36 35 35 34 34 34 34 35 35 36 36 37 38 38 38 37 37 38 39 40 42 43 44 45 46 47 48 49 49
35 35 35 35 34 35 35 35 35 36 36 36 36 36 37 36 35 35 34 34 35 36 37 38 38 39 40 41 41 41 41 42 43 45 47 48 49 51 52 53 54 55 55
36 37 37 37 36 37 37 37 37 37 36 36 37 37 37 36 36 36 35 36 37 38 40 41 42 43 44 44 44 44 45 46 47 49 51 53 54 55 56 56 57 58 58
38 38 38 38 38 38 38 38 38 38 38 38 38 38 38 38 38 38 39 40 41 42 43 44 45 46 47 47 47 48 49 51 52 54 55 56 57 58 59 59 59 60 60
39 39 39 39 40 40 39 39 40 40 40 40 40 40 41 41 41 42 43 44 45 46 46 47 48 49 50 50 51 52 53 55 57 58 59 60 60 61 61 61 61 62 63
40 40 40 40 41 40 40 40 40 41 41 42 42 43 44 44 45 46 46 47 48 48 49 50 51 52 53 53 54 55 57 59 61 62 63 63 63 63 63 64 65 66 67
40 39 40 40 40 40 40 40 41 41 42 44 45 46 47 47 47 47 48 49 50 50 51 52 53 55 56 57 58 60 62 63 65 66 66 66 67 67 68 69 70 71 71
38 38 39 40 40 40 40 41 42 42 43 45 47 48 49 50 50 49 48 50 50 51 53 54 55 57 59 61 63 65 67 68 69 69 70 71 71 72 73 73 74 75 75
38 38 39 39 39 40 41 42 43 44 45 46 48 49 50 51 51 50 49 50 51 53 54 55 56 58 61 64 66 68 70 71 72 73 73 73 74 75 76 76 77 77 78
39 38 39 39 39 39 40 42 44 45 46 48 49 50 51 51 51 52 52 51 52 52 54 56 59 61 64 66 67 69 71 72 73 73 74 75 76 77 78 79 80 82 84
39 38 38 38 38 39 41 42 44 46 47 48 49 50 51 51 52 54 55 54 53 53 55 58 62 65 67 68 69 70 71 72 73 74 76 77 79 81 83 86 89 92 94
38 38 38 38 39 40 41 43 44 46 47 47 48 49 50 52 53 55 56 56 55 56 59 61 64 66 68 70 71 72 73 74 75 77 79 82 86 90 93 97 100 102 105
39 39 38 38 39 40 41 43 44 45 46 47 48 49 51 53 54 55 56 58 61 63 63 63 65 67 69 70 72 74 75 78 80 84 88 92 96 100 103 105 106 105 103
40 39 38 38 38 40 41 42 44 45 47 48 49 51 53 55 55 56 59 62 65 67 67 67 69 70 71 72 75 78 81 85 89 94 99 102 105 106 104 100 94 86 79
39 38 37 37 38 40 41 43 44 46 48 50 52 53 55 55 57 60 62 64 66 68 69 68 70 72 74 77 80 84 89 93 98 102 104 104 101 95 86 77 67 60 55
38 37 37 38 39 40 42 44 46 48 50 52 54 56 56 58 60 63 64 65 67 68 70 70 71 74 78 83 87 91 96 100 101 100 96 90 81 71 62 54 49 45 43
38 37 37 39 40 41 43 46 48 51 52 54 56 57 59 61 63 64 66 67 68 69 71 73 76 80 85 90 94 98 99 97 91 84 76 68 60 53 48 45 42 40 38
37 37 38 39 41 43 45 48 50 52 54 56 58 60 62 63 64 65 66 67 68 71 75 79 82 87 92 97 99 97 90 81 71 63 57 53 48 46 44 42 40 39 38
36 37 38 41 43 46 47 49 50 53 55 58 60 61 62 64 64 65 66 68 72 76 80 84 89 94 97 97 93 85 74 62 54 52 48 46 45 43 43 42 41 40 39
36 37 41 43 45 46 48 49 51 55 57 59 60 61 62 63 63 65 68 72 77 82 87 92 96 98 95 89 79 67 58 51 47 48 47 43 43 42 42 43 42 41 39
37 40 42 44 45 46 48 51 54 56 58 59 60 61 61 62 64 68 72 77 83 89 94 97 96 91 82 71 62 54 50 48 47 47 46 42 41 40 41 42 43 41 38
38 41 43 44 45 47 50 53 55 56 57 59 59 60 62 64 68 72 76 81 87 93 95 92 86 75 65 56 52 50 48 46 43 44 45 42 39 38 38 40 42 40 38
39 41 42 43 46 48 51 53 54 55 57 57 59 61 65 68 72 77 82 87 91 91 88 79 70 60 53 51 51 49 47 46 42 41 44 42 39 36 34 37 40 39 36
38 39 41 44 47 49 51 52 54 54 55 57 61 65 69 73 78 83 87 89 88 82 72 62 55 51 50 50 50 49 47 46 44 42 42 40 37 36 31 32 37 37 34

GEFSMA_500_meanwind_030.txt.gz
Wind_Speed
28 28 27 27 26 26 27 27 28 28 29 29 29 30 31 32 33 34 35 35 36 36 35 35 35 35 35 35 34 34 32 31 30 30 30 30 30 31 31 31 31 31 32
29 29 29 28 28 28 28 28 29 29 30 30 31 31 31 32 32 32 33 33 34 34 34 35 35 35 34 34 34 34 34 33 33 33 33 33 33 34 34 34 35 35 35
30 29 29 29 28 28 29 30 30 31 31 32 32 33 33 33 32 32 33 33 33 33 34 34 35 35 35 35 36 36 36 36 36 36 37 37 37 38 38 39 39 39 40
31 30 29 29 29 29 31 31 32 32 32 33 34 34 34 34 34 33 33 34 34 34 34 35 36 36 37 38 39 40 40 40 40 40 41 41 41 41 42 43 44 44 45
31 31 30 30 31 32 33 34 34 34 35 35 35 36 36 36 36 35 35 35 36 37 37 38 39 40 42 43 43 44 44 44 44 44 44 44 45 45 46 47 48 48 49
32 32 32 32 33 34 35 35 36 36 36 36 36 36 37 37 37 37 37 37 38 39 41 42 43 44 45 46 47 47 48 47 47 47 47 47 48 48 49 50 51 52 53
33 33 33 34 34 34 35 35 36 36 36 36 36 37 37 37 37 38 38 39 40 42 43 45 46 48 48 49 49 49 49 49 49 49 50 51 51 52 52 53 54 56 57
34 34 34 34 33 34 34 35 35 35 35 35 36 37 37 37 38 39 40 41 42 44 45 47 48 49 49 50 50 50 50 51 51 52 53 53 54 54 55 57 58 60 61
38 36 35 34 33 34 34 34 34 34 35 35 36 37 37 38 39 40 41 42 44 45 46 47 48 49 49 50 51 51 52 53 53 54 54 55 56 57 59 61 62 63 63
40 38 36 35 35 35 35 35 35 35 36 36 37 37 38 39 40 41 42 43 45 46 47 48 49 50 50 51 52 53 53 54 55 56 57 58 60 62 63 64 65 65 66
44 42 40 38 38 38 37 36 36 36 36 37 38 38 39 39 40 41 43 44 45 47 48 50 50 51 52 52 53 53 54 55 57 58 60 62 64 65 66 67 67 68 69
47 46 44 42 41 40 39 38 37 36 37 38 39 40 40 40 41 42 43 44 46 47 50 52 53 54 54 54 54 55 56 58 60 62 63 65 66 67 68 69 70 71 73
50 48 47 45 44 42 40 39 38 38 38 39 40 41 41 41 42 43 45 46 47 48 50 52 55 56 56 56 57 59 60 62 63 64 65 66 67 69 70 71 73 75 76
51 50 48 46 45 44 42 40 40 40 40 41 41 42 42 43 44 46 48 49 50 51 52 54 56 57 58 59 61 62 63 65 66 66 67 69 70 71 73 75 77 79 81
51 50 48 47 46 44 42 41 41 41 41 42 42 43 44 44 46 48 51 53 55 56 56 56 58 59 61 62 63 64 65 66 67 68 70 72 74 76 78 81 84 87 90
50 49 47 46 45 43 42 42 42 42 43 43 44 44 45 46 49 51 54 57 59 60 60 61 62 63 63 64 65 65 66 67 69 71 74 76 79 82 86 89 92 95 97
48 47 46 45 44 42 42 42 43 43 44 44 44 45 46 49 52 55 58 60 62 63 64 64 66 66 67 67 66 67 68 70 73 77 80 84 87 91 95 97 98 98 96
46 45 44 43 42 41 41 42 44 45 45 45 45 47 49 52 56 59 61 62 64 65 66 66 67 68 68 69 69 71 73 76 80 84 88 92 96 97 97 96 92 87 81
44 42 41 40 40 40 41 43 44 45 45 45 47 50 54 57 59 60 62 64 66 67 68 68 68 68 69 72 73 75 78 82 88 92 95 97 95 93 88 83 76 70 65
41 40 39 39 39 40 41 43 44 45 46 48 51 54 57 58 60 62 64 66 67 67 68 69 69 70 72 75 78 80 83 88 91 94 93 90 85 80 74 69 64 60 58
37 37 37 37 38 40 41 42 44 46 48 51 54 56 58 60 62 64 66 67 67 68 69 71 71 73 76 79 82 85 87 88 87 85 81 76 72 68 64 62 60 58 57
34 34 34 36 38 40 40 42 45 48 51 53 55 57 59 61 63 65 67 67 69 70 72 73 75 78 81 84 85 86 86 83 77 72 69 63 62 60 59 58 58 58 57
32 32 34 38 40 41 42 45 48 50 51 53 56 58 60 63 64 66 67 68 70 73 76 78 79 82 84 85 85 82 78 73 67 63 61 56 56 56 56 56 57 57 56
31 33 36 37 39 42 44 45 47 49 52 54 57 59 61 63 65 66 68 70 73 76 79 82 84 85 85 83 79 74 68 62 57 56 59 56 54 54 52 52 55 56 55
32 34 34 36 39 40 42 44 47 50 53 56 58 60 62 64 66 69 71 74 76 79 82 85 85 83 79 74 69 63 58 55 53 53 58 57 54 52 48 47 51 52 51
31 32 33 35 37 39 42 45 48 51 54 56 59 61 64 66 70 73 75 77 79 81 82 81 78 73 67 61 57 55 54 54 54 53 54 53 50 48 42 39 42 46 46

GEFSMA_500_meanwind_036.txt.gz
Wind_Speed
28 27 27 27 26 26 26 26 26 25 25 25 26 27 28 28 29 30 31 32 32 32 32 32 31 31 30 31 31 31 31 30 30 31 31 31 31 31 31 30 29 28 28
29 28 28 28 28 27 27 27 27 27 26 26 27 28 29 30 31 32 32 33 33 33 33 32 31 31 31 30 31 31 31 31 31 32 32 33 33 34 34 34 33 33 32
29 29 29 29 29 29 29 29 29 29 29 28 29 30 31 32 33 34 34 34 34 34 33 33 32 32 32 32 32 32 33 33 33 34 34 36 37 37 38 38 38 38 38
30 30 30 30 30 29 30 30 30 30 30 31 32 32 33 33 34 35 35 35 35 34 33 33 33 33 33 34 34 35 35 36 37 38 39 40 41 42 42 42 43 43 43
32 31 31 31 31 31 31 31 31 31 32 32 33 33 34 34 34 35 35 35 34 34 33 33 33 33 34 35 36 37 38 39 40 41 42 43 44 45 46 46 47 47 47
35 34 33 33 33 32 32 32 33 33 34 34 34 33 33 34 34 34 34 34 34 33 33 33 34 34 35 36 37 38 39 40 41 42 43 45 46 46 47 48 49 49 50
38 36 36 36 35 35 35 34 35 35 36 36 35 34 34 34 34 34 34 34 34 34 34 34 35 35 35 36 37 38 38 40 41 42 44 45 46 48 49 49 50 51 52
40 39 39 39 39 38 37 36 36 37 37 37 36 36 35 36 36 36 35 35 35 35 35 35 36 36 36 37 38 38 39 41 42 43 45 46 47 49 50 51 52 53 54
43 43 43 43 42 41 40 39 38 38 38 38 38 37 37 38 38 37 37 36 36 36 37 37 38 38 39 39 40 40 42 43 44 46 47 48 49 50 51 52 52 53 54
47 47 46 46 45 44 43 42 41 40 40 40 39 39 40 40 40 39 39 39 39 39 39 40 41 41 42 42 43 43 44 45 46 48 49 50 51 51 52 53 53 54 55
49 49 48 48 47 47 46 45 44 43 43 42 42 42 42 42 42 41 41 41 41 41 41 42 44 45 46 46 47 47 47 48 49 50 52 53 53 54 54 55 56 57 58
51 50 50 50 49 49 49 48 47 46 45 45 44 44 44 44 44 44 43 43 43 43 44 45 47 48 49 50 50 51 52 53 54 55 56 57 57 57 58 58 59 60 61
53 52 51 51 51 51 51 50 49 48 47 46 46 46 46 46 45 46 46 45 45 45 46 48 50 52 53 54 54 55 56 58 59 60 61 61 61 61 62 63 63 64 65
57 55 54 54 54 53 52 51 51 50 49 48 48 47 47 47 47 47 47 48 47 47 48 50 52 54 56 57 58 60 61 62 63 64 64 65 65 65 66 66 67 67 68
62 59 58 57 56 55 53 53 52 51 50 49 49 48 48 48 48 48 49 50 49 50 50 52 54 57 59 60 62 63 65 66 66 67 67 68 69 69 69 70 70 71 72
66 64 61 59 57 56 55 54 53 52 51 50 50 50 50 51 50 50 51 52 52 52 54 55 57 59 62 65 66 67 68 69 69 70 71 71 71 72 73 73 74 75 77
69 66 63 61 59 58 57 56 53 52 51 51 50 50 51 52 52 51 53 54 55 55 57 59 61 63 66 68 70 71 71 72 72 73 74 75 75 76 77 78 79 80 82
67 65 64 61 60 58 57 55 53 52 51 51 50 51 51 52 53 55 55 56 57 59 62 63 65 67 69 71 72 72 73 74 75 76 78 79 80 81 82 82 83 84 84
63 62 61 59 58 56 55 53 52 51 50 50 50 50 52 53 56 57 58 58 61 64 66 68 69 70 71 72 73 74 75 76 78 79 80 82 83 83 84 84 84 84 85
58 57 56 55 54 53 52 51 50 49 49 48 49 51 53 55 57 60 61 62 64 66 69 70 70 71 72 74 75 75 76 78 79 81 83 84 84 85 85 85 84 82 81
48 49 49 49 49 49 48 48 47 47 47 48 49 51 54 56 58 61 62 64 66 68 70 71 71 72 73 75 76 77 78 79 80 83 84 84 84 83 81 79 77 75 75
37 39 42 42 43 43 44 44 44 45 46 47 49 52 54 56 59 61 62 64 66 68 70 71 71 73 75 77 78 80 81 81 81 81 80 77 76 73 70 69 70 70 70
28 31 34 36 38 39 40 41 41 43 44 47 49 52 53 55 56 59 61 63 66 68 70 72 73 75 77 79 80 81 80 79 75 72 68 63 63 62 62 62 63 64 63
23 25 28 30 33 35 36 36 38 40 42 46 47 49 51 53 55 58 61 64 66 69 71 74 75 77 78 79 77 75 71 66 61 59 58 55 54 55 54 55 56 56 54
18 20 23 26 27 29 32 34 37 39 41 44 46 47 50 53 56 59 62 64 67 70 73 74 76 76 75 72 69 65 59 54 51 51 53 50 48 46 44 44 46 47 46
15 18 19 22 25 28 30 32 33 34 37 41 43 47 50 54 57 60 63 66 68 70 72 73 73 71 68 64 59 54 49 47 45 44 45 43 41 40 36 35 39 42 43

GEFSMA_500_meanwind_042.txt.gz
Wind_Speed
28 27 26 26 26 25 25 25 26 26 26 26 25 25 25 25 25 26 26 26 27 28 28 28 29 29 29 29 29 29 28 28 28 28 28 29 29 29 29 29 28 28 28
30 29 28 27 27 27 27 27 27 27 27 27 27 26 26 26 26 26 26 27 27 27 27 28 28 29 28 28 29 29 29 29 29 29 29 29 30 30 30 30 30 30 30
32 32 31 30 30 30 29 29 29 29 28 28 27 27 26 27 27 26 27 27 27 27 27 28 28 27 27 27 28 29 29 30 30 31 31 31 31 32 32 32 33 33 34
35 35 34 33 33 32 32 31 31 31 30 29 29 28 28 28 27 27 27 27 27 27 27 28 28 27 27 28 28 29 30 30 31 31 32 32 33 33 34 35 35 36 37
39 39 38 38 37 36 35 35 34 33 33 32 31 31 30 29 29 28 28 28 28 28 28 28 28 28 28 28 29 29 30 30 31 32 32 33 33 34 34 35 36 37 38
42 42 42 41 40 39 39 38 38 37 35 34 34 33 33 32 31 30 30 30 30 30 30 30 30 30 31 31 30 30 31 31 32 32 33 33 34 34 35 36 37 38 38
46 45 44 44 43 43 43 42 41 40 38 38 37 36 36 34 33 33 32 32 32 32 33 33 33 33 33 33 33 33 33 33 33 33 34 35 35 36 36 37 38 38 39
49 49 48 47 47 47 46 46 45 43 42 41 40 39 38 37 36 36 35 34 35 35 35 36 36 37 37 37 37 36 36 36 36 36 36 36 37 38 39 39 39 40 40
52 52 51 51 51 50 49 49 48 47 46 45 43 42 41 40 39 38 37 37 37 38 39 39 40 40 41 41 40 40 40 40 40 40 40 40 40 41 41 42 42 42 43
55 55 54 54 54 53 52 51 51 50 49 48 47 46 45 43 42 41 40 40 41 41 42 42 43 44 44 44 44 44 44 44 44 44 44 44 44 44 44 45 45 46 47
56 57 57 57 57 55 55 54 53 53 52 51 50 49 48 46 45 44 43 43 43 44 44 45 46 46 47 47 47 47 48 48 48 48 48 48 47 47 48 48 49 50 51
57 58 59 60 60 59 58 57 56 56 55 54 53 52 51 49 47 47 46 45 46 46 47 47 48 49 49 50 50 50 50 51 51 51 51 51 51 52 52 53 54 55 56
58 59 61 62 62 62 62 61 59 58 58 57 56 54 54 52 50 50 49 48 48 48 49 50 50 51 52 53 53 54 53 54 54 55 56 55 55 56 57 58 59 60 61
62 63 63 63 64 64 64 63 62 61 60 59 58 57 57 56 54 52 52 51 51 51 51 52 53 54 55 56 56 57 57 56 57 59 59 59 60 61 62 63 64 65 66
67 67 67 67 66 65 65 65 63 63 62 61 61 60 59 58 56 55 54 54 54 54 54 54 56 58 58 58 58 59 59 59 61 62 62 64 64 65 67 68 68 69 70
70 70 70 70 69 67 66 65 64 64 63 62 62 61 60 59 59 58 57 56 56 56 56 57 59 59 60 60 61 62 62 62 63 64 65 67 69 69 70 71 72 73 74
69 69 70 69 68 67 66 64 63 63 63 62 62 61 61 61 61 59 59 58 57 57 59 60 60 61 62 63 64 64 64 65 66 67 68 69 71 72 73 74 74 76 77
63 64 65 65 65 64 63 62 61 60 60 61 61 61 61 61 61 60 59 58 58 59 60 61 62 63 64 65 66 67 67 67 68 69 70 71 72 73 74 75 77 78 79
52 54 56 57 57 57 57 57 56 55 55 56 57 58 59 59 59 59 58 58 58 59 60 63 64 64 65 67 67 67 68 68 69 70 71 73 74 76 77 78 79 79 80
40 42 45 47 47 48 48 49 48 48 48 49 50 52 53 54 55 55 56 56 58 59 61 63 64 65 66 66 67 67 67 68 70 71 73 75 77 78 79 79 79 78 77
31 33 34 35 36 37 39 39 40 40 41 42 43 45 47 49 49 50 53 55 56 59 60 63 64 64 65 66 66 66 68 69 71 74 75 77 78 78 78 77 75 73 71
22 23 25 25 26 28 29 30 31 33 34 36 38 39 42 44 44 48 50 52 55 58 60 61 61 63 64 65 66 68 69 71 72 75 75 74 74 73 71 70 68 66 63
16 16 16 17 18 19 20 22 24 26 28 30 33 36 39 40 43 46 49 52 54 55 56 57 59 61 63 65 67 68 70 71 71 72 70 67 67 66 65 63 61 58 56
12 10 10 11 12 13 15 17 20 22 24 27 30 34 36 38 41 44 46 48 50 52 54 57 59 61 63 65 66 67 68 67 67 67 66 62 61 59 56 54 54 53 51
8 6 6 8 9 11 13 15 17 20 23 26 28 31 33 36 38 41 44 46 50 53 55 57 59 61 63 63 63 63 63 62 61 60 59 55 51 47 46 48 50 49 48
8 6 5 5 6 7 10 12 15 17 20 22 25 28 32 35 38 41 44 47 50 53 55 56 58 59 59 59 59 58 56 54 52 50 48 45 43 41 39 41 44 45 44

GEFSMA_500_meanwind_048.txt.gz
Wind_Speed
28 28 28 28 28 27 27 27 27 27 27 27 27 26 26 26 25 24 24 24 24 25 25 24 24 23 22 21 21 20 20 20 20 20 20 20 21 21 22 22 23 23 23
29 29 29 29 29 29 29 29 29 29 29 29 29 29 28 28 27 26 26 26 26 26 26 25 25 24 23 22 22 21 20 20 20 20 21 21 22 22 23 23 24 24 24
31 31 31 31 31 32 32 32 32 32 32 31 32 31 31 30 30 28 27 27 28 27 27 27 27 26 25 24 23 22 22 21 21 21 22 22 23 23 23 24 25 25 25
34 34 34 35 35 36 36 35 35 35 35 35 35 35 34 33 32 31 30 29 29 29 29 29 29 28 27 26 25 24 24 23 23 23 24 24 24 24 24 25 25 26 26
37 38 38 38 39 39 39 39 39 39 39 39 39 38 37 36 36 35 33 32 31 31 31 31 31 30 30 29 28 27 26 26 26 26 26 26 26 27 27 27 27 28 28
40 41 41 41 42 42 42 43 43 43 43 43 43 42 41 40 39 38 37 35 34 34 33 33 33 33 32 32 31 30 30 29 30 30 29 29 30 30 30 30 30 30 30
43 44 44 44 45 45 45 46 46 46 46 47 47 46 46 44 42 41 40 39 38 37 36 35 35 35 35 34 34 33 33 33 32 33 33 33 33 33 33 33 34 34 34
46 47 47 48 48 48 48 49 49 50 50 50 51 51 50 48 46 45 44 43 42 41 39 38 38 38 37 37 37 36 36 36 36 36 36 36 36 36 37 37 37 38 38
47 49 50 50 51 52 52 52 52 53 54 54 54 55 54 52 51 49 48 47 46 44 43 42 42 41 41 40 40 40 39 39 38 39 39 39 39 40 40 41 41 41 42
48 49 51 52 54 55 55 55 55 56 57 57 57 57 57 57 55 52 51 50 49 47 46 46 45 45 44 42 42 43 43 42 42 42 43 43 43 43 44 44 45 45 45
48 50 51 53 54 56 58 58 59 59 60 60 60 59 60 60 58 57 55 53 52 51 50 49 48 47 47 46 45 45 46 46 45 45 46 46 47 46 47 47 48 48 49
49 50 51 53 55 57 59 60 62 63 63 63 63 63 62 62 61 60 59 57 55 53 53 51 51 50 49 49 48 48 48 47 47 47 48 49 50 51 51 51 52 52 52
48 50 51 53 55 58 60 62 64 65 66 66 66 65 64 63 63 62 61 59 57 56 55 54 52 52 51 51 50 49 49 49 50 51 52 53 54 55 55 55 55 55 55
48 49 51 53 55 58 61 63 64 66 67 67 67 66 65 64 63 62 61 61 60 57 56 55 54 54 52 51 50 50 50 51 53 54 55 56 57 58 58 58 58 57 57
46 48 50 53 55 58 61 63 64 64 65 66 66 66 65 64 62 61 60 60 59 58 57 57 55 53 53 53 53 53 53 54 55 57 58 60 60 60 59 60 60 61 61
45 48 51 53 55 57 59 60 61 61 62 62 63 63 63 62 61 60 59 58 58 58 58 57 56 56 55 56 56 56 57 57 59 59 60 62 62 63 63 63 63 64 64
44 46 49 50 51 53 54 55 56 56 56 57 57 58 59 58 58 58 58 58 58 58 58 57 57 57 57 58 58 59 60 60 62 63 63 64 64 64 65 65 65 64 64
42 44 46 46 47 48 49 50 50 49 49 49 49 50 51 53 53 54 55 55 56 57 57 57 58 59 59 60 61 62 61 62 63 64 65 65 66 66 66 65 64 64 65
40 41 42 43 43 45 45 44 43 42 42 42 42 43 44 46 48 49 51 51 52 53 55 55 56 58 59 60 60 61 61 62 64 65 66 66 66 65 64 64 64 65 65
38 38 39 39 39 40 40 38 37 36 35 35 34 36 37 39 40 42 44 46 46 48 50 51 53 55 56 58 59 61 62 63 63 64 63 63 64 64 64 64 65 66 67
35 35 35 35 35 35 35 32 31 30 29 28 28 29 31 32 34 36 38 40 41 43 46 48 50 52 54 55 57 58 59 59 60 61 62 63 63 64 65 66 67 67 67
32 32 31 31 31 31 30 28 27 25 25 24 23 23 24 25 27 29 32 34 36 40 43 45 47 49 51 52 53 55 56 58 60 61 62 63 63 64 65 66 66 66 67
29 29 28 27 27 27 26 26 25 23 21 20 19 19 20 21 24 26 28 30 33 36 38 41 43 46 48 49 52 54 56 58 59 60 60 60 62 62 63 64 64 63 62
27 26 25 25 24 23 23 23 22 20 19 17 17 17 16 18 19 21 24 26 30 33 36 39 42 45 48 50 52 54 56 57 59 60 59 59 60 60 60 60 59 59 58
25 24 24 23 22 22 21 21 20 19 18 17 16 16 17 18 20 21 24 27 30 33 36 39 42 45 48 51 53 55 56 57 58 59 59 58 57 55 54 55 55 54 52
23 22 22 21 20 20 20 20 19 19 18 18 18 18 19 20 22 24 26 29 32 35 38 41 44 48 50 52 54 55 56 57 58 58 58 55 53 51 48 48 48 47 46

GEFSMA_500_meanwind_054.txt.gz
Wind_Speed
22 23 24 24 25 26 26 26 27 27 27 28 29 29 29 29 28 28 28 28 28 28 28 27 27 27 26 25 24 24 23 22 22 21 20 19 19 19 18 18 18 18 18
24 25 26 27 27 28 28 29 29 29 30 30 31 32 32 32 31 31 31 31 31 31 30 29 29 29 29 28 27 26 25 24 24 23 22 22 21 21 20 20 20 20 20
27 27 27 28 29 30 30 31 32 32 32 33 34 35 36 36 35 35 34 34 34 34 33 32 32 31 31 30 29 28 27 27 26 26 25 24 23 23 23 22 22 22 21
30 29 29 29 30 31 32 33 34 35 36 36 37 38 39 39 38 38 37 37 37 37 37 36 35 34 34 33 33 32 31 30 29 28 28 27 26 26 25 25 24 24 24
31 32 32 32 33 34 35 36 37 38 38 39 41 41 42 42 42 42 41 41 40 40 40 39 39 38 37 37 36 35 34 33 32 32 31 30 30 29 28 28 27 27 27
33 34 35 35 37 37 38 39 40 40 41 42 43 44 45 45 45 45 45 44 44 43 43 43 42 41 41 40 39 38 37 37 36 35 34 34 34 33 33 32 31 30 29
36 36 37 38 39 40 41 42 42 43 44 45 46 47 48 48 48 48 48 48 47 47 46 45 45 45 44 43 43 42 41 40 39 39 38 38 37 37 37 36 35 34 33
39 39 39 40 41 42 43 44 45 46 47 48 49 50 50 50 49 51 51 51 50 50 49 48 48 47 47 47 46 45 44 43 43 42 42 41 41 41 40 40 39 37 36
40 41 42 43 44 45 45 46 47 48 49 50 50 52 52 52 52 52 53 53 53 53 52 51 51 50 49 49 48 48 47 46 46 45 45 45 44 44 44 44 43 42 40
42 43 44 45 46 47 47 48 49 50 50 50 51 52 54 54 55 55 54 55 56 56 55 55 54 53 52 52 51 50 49 49 48 48 48 48 47 47 47 46 45 45 44
43 44 45 46 47 48 48 49 50 50 50 51 52 53 55 56 57 58 58 58 58 58 58 57 56 55 55 54 53 52 51 51 50 50 49 50 50 50 49 49 48 47 46
45 45 46 47 47 47 48 48 48 49 50 51 53 54 55 57 58 59 60 60 60 60 59 59 58 57 57 56 55 54 53 52 51 51 51 50 51 50 48 47 48 48 47
46 46 47 47 47 46 47 47 47 48 50 51 52 54 56 57 59 60 61 61 61 60 60 60 60 59 58 57 56 56 54 53 53 52 51 50 47 46 46 46 46 48 49
45 46 46 46 46 46 45 45 46 47 48 49 51 53 54 55 56 57 58 59 60 59 58 57 57 57 58 57 57 56 55 55 55 53 51 50 48 46 45 46 46 46 47
44 44 44 45 45 44 44 44 44 46 47 49 50 51 51 52 54 55 55 56 56 55 54 54 54 52 53 54 54 56 55 54 54 53 52 50 49 47 46 46 46 47 47
43 43 43 43 42 42 42 43 44 45 46 47 48 48 48 49 50 51 51 52 52 51 50 49 49 48 48 49 51 52 53 54 54 54 53 50 50 48 47 47 48 49 51
41 41 41 40 40 41 41 42 43 43 44 44 44 44 45 47 47 47 47 46 46 46 46 45 46 47 45 46 48 50 51 52 51 52 51 50 49 49 49 50 51 53 53
39 39 39 39 39 39 39 40 41 41 41 40 40 41 42 42 42 42 42 42 41 40 39 39 40 42 44 43 44 46 48 50 50 51 51 51 51 52 53 53 53 54 55
37 37 37 37 37 37 38 39 38 38 37 37 37 37 38 38 38 37 37 36 35 35 35 35 34 34 36 39 41 43 45 47 49 50 51 52 53 53 53 53 53 54 54
35 35 35 35 36 36 37 37 36 35 35 34 35 35 35 35 34 33 33 32 30 29 30 30 29 29 31 34 36 38 41 44 45 48 49 50 51 52 52 53 53 53 54
33 33 33 34 34 35 35 35 34 34 33 33 33 32 32 31 30 30 29 28 26 25 25 25 26 27 29 32 34 36 38 40 43 45 47 49 51 52 53 54 55 55 56
31 31 31 32 32 33 33 33 32 31 31 30 30 29 29 28 28 27 26 25 24 24 24 24 24 26 27 29 31 34 37 39 42 44 47 49 51 52 54 55 56 57 57
29 29 30 30 30 31 31 30 30 29 28 28 27 28 27 27 27 26 26 26 25 25 24 25 25 26 28 30 32 34 36 39 42 45 47 49 51 53 55 56 57 57 58
27 27 28 28 28 29 28 28 28 27 27 27 27 27 27 27 27 26 26 26 26 26 26 26 27 29 30 32 34 37 39 42 44 47 49 51 53 54 56 57 57 58 57
25 25 26 27 27 27 27 27 27 26 26 27 27 27 27 27 27 27 28 28 28 28 29 30 31 32 34 36 38 40 42 45 47 49 51 52 54 55 56 57 57 56 56
24 24 25 25 26 26 26 26 26 26 27 27 28 28 28 28 29 29 30 30 31 32 32 33 34 36 37 39 41 43 45 47 50 52 53 54 55 55 54 55 55 54 54

GEFSMA_500_meanwind_060.txt.gz
Wind_Speed
22 22 22 22 23 23 23 24 25 26 27 28 29 30 31 31 32 33 34 34 35 36 36 36 36 36 36 36 35 35 34 33 32 31 31 29 28 27 26 25 24 23 22
24 24 24 24 25 25 25 26 27 28 29 30 31 32 33 34 34 35 36 37 37 38 38 39 39 39 38 38 38 37 37 36 35 34 33 32 31 30 29 28 27 26 25
26 26 26 27 27 27 27 28 29 30 31 32 34 35 36 36 37 38 38 39 39 40 40 41 41 41 41 41 40 40 39 39 38 37 36 35 34 33 32 31 30 29 28
28 28 28 29 29 29 30 31 32 33 34 35 37 38 38 39 40 40 41 41 42 42 43 43 43 43 43 43 42 42 41 41 41 40 39 38 37 36 35 34 33 32 31
30 30 30 31 31 32 33 34 35 36 37 38 40 40 41 42 43 43 43 44 45 45 45 45 44 44 44 44 44 44 43 43 43 42 42 41 40 39 38 37 36 35 34
32 32 32 33 34 34 35 37 38 39 40 41 42 42 43 44 44 45 45 46 46 46 46 46 46 46 46 45 45 45 45 45 45 44 44 43 42 42 41 40 39 38 37
35 35 34 35 36 37 38 39 40 41 42 44 45 45 45 45 45 46 46 46 46 46 46 47 47 47 47 47 47 46 46 46 46 46 46 45 45 44 43 43 42 41 40
37 37 37 38 39 40 41 42 43 44 44 46 47 47 46 45 45 46 46 45 45 46 47 48 48 48 49 49 49 49 48 48 48 47 48 48 48 47 46 45 44 43 43
39 39 40 40 41 42 43 44 45 46 47 48 48 49 49 47 46 45 44 45 45 46 47 48 49 50 51 51 51 51 51 51 51 51 50 49 50 49 48 47 46 46 46
41 42 42 43 43 44 45 46 47 48 49 49 49 49 49 48 47 45 44 44 45 46 47 48 49 51 51 52 52 53 54 53 54 54 53 53 53 52 51 50 49 48 48
43 44 44 45 45 46 47 48 49 49 50 50 49 49 48 48 47 46 45 44 46 47 48 49 50 50 51 52 53 54 54 55 55 55 55 56 56 54 52 51 50 50 49
45 45 46 46 46 47 48 49 49 50 50 49 48 48 48 47 46 46 45 45 46 47 48 49 49 50 52 53 54 54 54 53 54 55 56 55 56 56 55 52 50 48 47
46 46 47 47 47 48 49 49 49 49 48 48 47 47 46 46 46 46 46 46 46 46 46 47 48 50 52 52 52 52 52 51 51 52 53 52 53 54 52 51 50 49 49
47 47 47 47 48 49 49 49 48 47 47 47 46 45 45 44 45 46 46 46 46 45 44 44 46 48 49 49 48 47 48 47 48 49 49 48 49 50 50 50 48 47 47
47 47 48 49 49 49 48 47 46 46 46 45 44 44 44 43 44 45 46 45 44 43 42 43 44 45 45 45 44 44 42 41 41 41 41 43 44 45 46 47 46 44 43
48 48 48 49 48 47 46 45 45 44 44 43 43 43 43 43 44 44 44 43 42 41 40 40 41 41 41 40 40 38 37 36 34 33 35 35 37 39 39 40 44 43 43
48 48 47 47 46 45 44 44 43 43 43 43 43 43 43 43 43 43 42 41 41 40 39 38 38 38 37 37 35 33 31 30 29 29 29 30 32 33 35 36 38 39 40
46 46 45 45 44 43 42 42 42 42 42 42 41 41 42 42 41 41 40 39 38 37 37 36 36 36 35 33 31 30 28 27 25 24 25 27 28 31 34 35 37 39 41
45 44 43 42 41 40 40 40 40 40 40 40 39 40 40 40 39 39 38 37 36 36 35 35 35 34 33 32 30 29 27 26 25 25 25 26 28 30 31 34 36 37 39
42 41 40 38 38 38 38 38 38 38 38 38 38 38 38 38 37 36 35 35 34 34 34 34 33 32 31 31 30 29 28 27 26 26 27 28 29 31 32 33 36 38 40
39 38 37 36 36 36 36 36 36 36 36 36 36 36 36 36 35 34 34 34 34 34 34 33 32 32 32 31 31 31 30 29 29 29 29 30 31 32 34 35 37 39 41
35 35 34 34 34 34 34 34 34 34 34 34 35 35 34 34 33 33 34 33 33 33 33 33 33 33 33 33 32 32 32 32 32 32 33 34 35 36 37 38 40 42 43
33 32 32 31 31 31 31 31 32 32 33 33 33 33 33 33 32 33 33 33 33 33 33 33 34 34 34 34 34 34 35 35 35 36 36 38 39 40 41 42 44 45 46
30 29 29 29 28 28 29 30 30 30 31 32 32 32 31 31 32 33 33 33 33 34 34 34 35 35 35 36 36 37 37 38 39 39 40 42 43 44 45 46 47 48 49
27 27 27 26 27 27 27 28 28 29 30 31 31 31 31 31 32 33 33 34 34 34 35 35 36 37 37 37 38 39 39 40 41 43 44 45 47 48 49 50 50 51 52
25 25 25 25 25 26 26 27 28 29 30 30 31 31 32 32 33 33 34 34 35 35 36 37 38 38 39 39 40 41 42 44 45 46 47 48 49 50 51 52 53 54 55

GEFSMA_500_meanwind_066.txt.gz
Wind_Speed
18 18 18 18 18 18 19 19 20 21 22 23 25 26 27 28 29 31 32 33 34 34 35 35 36 36 36 36 36 35 34 34 33 33 33 33 33 32 32 31 30 29 28
21 21 21 21 21 21 21 22 23 24 25 26 27 28 29 30 31 33 34 35 36 37 37 37 37 37 37 37 36 36 35 34 34 34 34 34 34 34 33 33 32 31 30
24 23 24 24 24 24 24 25 26 27 28 29 30 31 32 33 34 35 36 37 38 39 39 39 39 38 38 37 37 36 35 35 36 35 35 35 35 35 35 34 34 33 32
26 26 27 27 27 27 27 28 29 30 30 31 32 33 34 35 36 38 39 40 40 40 40 40 40 39 38 37 37 36 36 37 37 37 37 37 37 36 36 36 35 35 34
29 29 29 30 30 30 30 31 32 32 33 34 35 36 37 37 39 40 41 42 42 42 42 41 41 40 39 38 37 37 37 38 38 38 38 38 38 38 38 38 37 37 37
32 32 32 32 32 33 33 34 34 35 35 36 37 38 39 40 41 42 43 43 43 43 43 43 42 41 39 38 38 38 38 39 38 39 39 39 39 39 39 39 40 39 39
35 35 35 35 35 35 36 36 37 38 38 39 40 41 41 42 42 44 44 45 45 45 44 43 42 40 39 39 39 39 40 40 40 40 40 39 39 40 41 42 42 42 42
39 38 38 38 38 38 38 39 40 40 40 41 43 43 43 43 43 44 45 46 46 45 44 43 42 41 40 40 40 41 41 41 41 41 40 41 41 41 42 43 44 44 45
41 41 41 40 40 40 40 41 42 42 43 44 44 45 46 46 45 44 44 44 45 44 44 43 42 41 41 41 41 42 42 41 41 41 41 42 43 43 43 44 45 46 46
44 43 43 43 42 42 42 43 43 44 45 45 45 46 47 48 48 47 44 43 43 43 43 42 41 41 42 42 42 41 41 41 40 41 41 42 43 43 44 45 45 46 47
46 46 45 44 44 44 44 45 45 46 46 47 47 47 48 48 48 48 46 44 43 42 42 41 41 41 42 42 42 41 40 40 40 40 40 41 43 44 44 45 45 45 45
48 47 46 46 46 46 46 46 46 47 47 48 48 48 48 48 47 46 45 44 43 42 41 41 42 42 42 42 41 40 39 39 39 40 40 41 41 42 43 43 43 43 43
49 48 48 47 47 47 48 48 48 48 48 48 48 48 48 47 46 45 45 43 42 41 41 41 42 42 42 41 40 39 38 38 39 38 38 39 38 38 38 38 38 39 39
49 49 48 48 48 48 48 48 48 48 48 48 47 47 47 46 45 44 44 43 42 41 41 41 41 42 41 39 38 38 38 37 37 36 37 36 35 34 34 33 33 34 36
49 49 48 48 48 48 48 47 47 47 47 47 47 46 45 44 44 43 43 42 42 41 40 40 40 40 39 38 37 37 36 36 35 35 34 33 32 31 30 30 30 30 31
50 49 49 49 49 48 48 47 47 47 47 46 46 45 44 43 43 42 42 42 41 40 39 39 38 38 37 36 36 36 35 35 34 33 32 31 29 28 27 27 27 28 28
50 50 49 49 49 48 47 47 46 46 46 45 44 43 43 42 41 41 41 39 39 38 38 37 37 36 36 35 35 35 34 34 33 32 31 30 28 27 25 25 25 26 26
51 50 50 49 48 47 46 46 46 45 44 44 43 42 41 41 40 40 38 38 37 37 37 36 35 35 34 34 34 34 34 33 32 30 29 29 29 28 27 26 25 25 26
50 49 48 47 47 46 45 45 45 44 43 42 41 40 40 39 38 38 37 36 36 36 35 35 34 34 34 33 33 33 33 32 31 31 30 29 29 28 28 28 28 27 28
48 46 46 45 44 44 43 43 43 42 42 41 40 39 38 37 36 36 35 35 34 34 34 34 33 33 33 33 33 33 32 32 32 32 31 31 30 30 30 30 30 30 31
44 44 44 43 43 43 42 42 41 40 39 38 38 37 36 35 35 34 33 33 33 33 33 33 32 32 33 33 33 33 33 33 33 33 33 33 32 32 32 32 33 33 33
42 42 42 42 41 41 41 40 39 38 37 36 35 34 34 33 32 31 31 31 31 32 32 32 32 32 33 33 33 33 34 34 34 34 34 35 35 35 35 35 36 36 37
40 40 40 40 39 39 38 37 36 35 35 34 33 32 31 30 30 30 30 31 31 31 32 32 33 33 34 34 34 34 35 35 35 36 36 37 37 37 38 39 39 40 41
37 37 36 36 36 36 35 34 34 33 32 31 30 30 30 29 29 30 30 30 31 31 32 33 33 34 34 35 35 35 36 36 37 38 38 39 40 41 41 42 43 43 44
34 34 33 33 33 32 32 32 31 30 30 29 29 29 29 29 30 30 30 31 31 32 32 33 34 34 35 35 36 37 37 38 39 39 40 41 42 43 44 44 45 46 47
31 31 31 31 30 30 30 29 29 29 29 29 29 29 29 29 30 30 31 31 32 33 33 34 35 35 36 37 37 38 39 40 40 41 42 43 44 45 46 47 48 48 49

GEFSMA_500_meanwind_072.txt.gz
Wind_Speed
19 18 18 17 17 17 17 17 18 18 19 20 21 23 24 25 26 27 29 30 32 33 33 34 35 35 36 36 36 35 35 34 33 32 31 30 30 30 29 29 28 28 27
22 21 20 20 20 19 19 20 20 21 21 22 23 25 26 27 28 30 30 32 33 35 35 36 36 37 37 37 37 36 36 35 34 33 32 31 31 31 30 30 29 28 28
25 24 23 23 22 22 22 23 23 23 24 25 26 27 28 29 30 32 33 34 35 36 37 37 38 38 38 38 37 37 37 36 35 34 33 33 32 32 31 31 30 30 29
28 27 26 26 25 25 25 25 26 26 27 27 28 29 30 31 32 34 35 36 37 37 38 39 39 40 40 39 38 37 37 36 36 35 34 34 34 33 33 32 32 31 30
31 30 30 29 29 28 28 28 28 29 29 30 30 31 32 33 34 36 37 38 39 39 40 40 41 41 41 40 39 38 37 37 36 36 36 35 35 34 33 33 33 32 32
35 34 34 33 32 31 31 31 31 32 32 33 33 34 35 36 37 37 38 40 41 41 41 42 43 42 41 40 39 39 38 38 37 37 37 36 36 35 34 34 33 33 32
38 37 37 36 35 35 35 34 35 35 35 36 37 37 37 38 38 39 39 41 42 42 43 43 43 43 42 41 40 39 38 38 38 37 38 37 36 35 35 34 33 33 33
40 40 40 39 39 39 38 38 39 39 39 39 40 40 40 39 40 40 40 41 42 43 44 44 44 43 42 41 40 40 39 38 38 38 38 38 37 36 35 34 33 33 33
43 43 43 43 42 42 42 42 42 42 42 42 43 44 44 43 42 41 42 41 42 43 44 44 44 43 42 41 41 40 40 39 38 38 38 37 36 35 35 34 33 33 33
45 45 45 45 45 45 45 45 45 45 45 44 45 45 46 46 46 44 44 44 44 44 44 44 43 43 42 41 41 40 40 39 39 38 38 36 35 34 33 33 33 33 33
47 47 48 48 48 48 48 48 47 47 47 47 47 47 46 46 46 46 45 45 45 45 44 44 43 43 42 42 41 40 40 39 39 38 36 34 33 32 32 33 33 33 33
49 49 49 50 50 50 49 49 49 49 49 48 48 48 47 47 46 46 45 45 45 45 44 44 44 43 42 42 41 40 40 39 37 36 34 33 32 31 32 32 32 32 33
51 51 51 51 51 51 51 51 50 50 49 49 48 48 47 47 46 46 45 45 45 45 44 44 43 43 42 42 41 40 39 37 35 34 33 32 31 31 31 31 31 31 31
52 52 51 51 51 51 51 51 50 50 49 49 48 48 47 46 46 46 46 46 45 45 44 43 43 42 42 41 40 38 37 35 34 33 32 31 30 30 30 30 30 30 30
52 51 50 50 51 51 51 50 49 49 48 48 48 48 47 47 47 47 46 46 46 44 43 43 42 41 41 40 38 36 35 34 33 32 31 30 30 30 30 29 29 29 28
52 51 50 50 50 50 50 49 49 49 49 48 48 48 48 48 48 47 47 46 45 44 43 42 41 41 39 38 36 35 34 33 32 31 30 30 30 29 29 28 28 27 26
51 50 50 50 50 50 50 50 50 50 49 49 49 48 48 47 47 47 46 45 44 43 42 41 40 39 37 36 35 34 33 32 31 30 30 29 29 29 28 28 27 26 26
50 50 51 51 51 51 51 51 51 51 50 50 49 49 48 47 47 46 44 43 43 42 40 39 38 36 35 34 33 32 31 31 30 29 29 29 29 28 28 27 27 27 27
51 51 51 51 52 52 52 52 51 51 50 50 49 48 47 46 45 44 43 42 41 40 39 37 36 35 34 33 32 31 30 30 29 29 29 29 29 29 28 28 28 28 28
50 51 51 51 51 51 51 50 50 49 48 48 47 46 45 45 44 43 42 41 39 37 36 35 34 33 32 31 30 30 30 30 29 29 29 29 29 29 29 30 30 30 30
47 47 48 48 48 48 48 47 47 46 46 45 44 44 43 42 41 40 39 38 36 35 34 33 32 32 31 30 30 30 30 30 30 30 30 30 30 30 31 31 32 32 32
45 45 45 45 45 45 45 45 44 44 43 42 42 41 40 39 38 37 35 34 33 32 32 32 31 31 30 30 30 30 30 30 30 30 31 31 31 32 33 33 33 34 34
42 43 42 42 42 42 42 42 42 41 41 40 39 39 38 37 36 34 33 33 32 31 31 31 31 31 31 30 30 30 30 30 31 31 32 32 33 34 34 35 35 35 36
41 41 41 40 40 40 40 40 39 39 38 37 37 36 35 33 33 32 32 31 31 31 31 31 31 31 30 30 31 31 31 32 32 33 33 34 35 35 36 36 37 38 38
38 39 39 39 38 38 37 37 36 35 35 34 33 32 31 31 30 30 30 30 31 31 31 31 31 31 31 31 31 32 32 33 34 35 35 36 37 37 38 38 39 39 40
36 35 35 35 35 35 35 34 33 32 32 31 30 30 30 29 29 29 30 30 31 31 31 31 31 31 32 32 33 34 34 35 36 37 37 38 39 39 40 40 41 41 42

GEFSMA_500_meanwind_078.txt.gz
Wind_Speed
22 21 21 20 19 19 19 18 18 19 19 19 19 20 20 21 22 23 24 25 26 27 28 29 30 31 31 32 32 33 33 33 33 32 32 32 31 31 30 29 28 28 27
23 23 23 23 22 21 21 21 21 21 21 22 22 22 23 23 24 25 26 27 28 29 30 31 32 32 32 32 33 34 34 34 34 33 33 33 32 32 31 30 29 29 28
25 25 25 25 25 24 24 23 23 24 24 24 25 25 25 26 26 27 28 30 30 32 32 33 34 34 34 33 34 35 35 35 35 34 34 34 34 33 32 31 30 29 29
27 27 27 28 27 26 26 26 26 26 27 27 27 27 28 28 29 30 31 32 33 34 34 35 35 35 35 35 35 35 36 36 35 35 35 35 34 33 33 32 31 30 29
29 29 30 30 29 29 29 29 29 29 30 30 30 30 30 31 32 33 34 34 35 36 36 37 37 36 36 36 36 36 37 36 36 36 36 35 35 34 33 32 31 30 29
31 31 32 32 32 32 32 32 32 32 33 33 32 32 33 33 34 35 36 37 38 38 38 38 38 38 38 37 37 37 37 37 37 37 37 36 35 34 33 32 32 31 30
34 34 34 34 34 35 35 35 35 35 35 36 35 35 35 36 37 38 39 39 40 40 40 40 40 39 39 39 38 38 38 37 37 37 37 37 36 34 34 33 32 31 29
36 36 36 37 37 37 37 38 38 38 39 39 39 39 38 38 39 40 41 41 42 42 42 41 41 40 40 39 39 39 38 38 38 38 37 37 36 35 34 33 32 31 29
39 38 39 39 39 39 39 40 41 41 41 41 42 42 42 41 40 40 41 42 43 43 42 42 40 40 39 39 39 39 39 39 39 38 37 37 36 35 34 33 32 31 29
42 42 42 42 42 42 42 43 43 43 43 42 43 44 45 45 44 43 42 43 43 43 42 41 41 40 39 39 39 39 39 39 39 38 37 37 35 34 33 31 30 29 28
44 44 44 45 44 45 45 45 44 44 44 44 44 45 45 46 46 47 45 44 44 44 42 41 41 40 40 40 39 40 40 39 39 38 37 36 34 33 31 30 29 28 27
47 47 47 47 46 46 46 47 47 47 47 47 47 47 47 47 48 48 47 47 45 44 43 42 41 41 41 41 41 40 40 39 39 38 37 35 33 31 29 29 28 27 27
49 49 49 49 49 49 49 49 49 49 49 48 48 48 48 49 49 49 48 47 46 45 44 43 43 42 42 42 42 41 40 39 38 37 35 33 31 29 29 28 28 27 27
50 50 50 51 51 51 51 51 51 51 50 49 49 49 49 49 49 48 47 46 45 44 44 44 43 43 43 43 42 42 40 39 38 36 34 32 30 29 29 28 27 27 26
51 51 51 52 52 52 53 52 52 51 51 51 50 50 49 49 48 47 47 46 46 45 44 44 44 44 44 43 42 41 40 38 37 35 34 31 30 29 28 27 26 26 26
52 52 51 52 52 52 52 52 52 51 51 51 50 50 49 49 48 48 47 47 47 46 45 45 45 45 44 43 42 40 39 37 36 34 33 31 30 29 27 26 26 25 26
52 53 53 53 53 52 52 52 52 52 51 51 50 50 50 49 49 48 48 48 47 47 47 46 45 44 43 42 41 39 38 36 35 33 32 30 29 28 27 26 26 26 26
52 52 53 53 53 53 53 52 52 52 51 51 50 50 50 50 49 48 48 48 48 47 46 45 44 43 42 40 39 38 36 35 33 32 30 29 29 28 27 27 26 26 26
50 51 52 52 52 52 52 51 50 50 50 49 49 49 49 48 48 47 47 47 46 45 44 43 42 41 39 39 37 36 35 33 31 30 30 29 28 28 27 27 26 26 26
47 48 48 49 49 49 48 47 47 47 47 47 47 47 47 46 46 45 45 44 44 43 42 41 40 39 38 36 35 33 32 31 30 30 29 29 28 28 27 27 27 26 26
45 45 45 45 45 45 45 45 45 45 45 46 45 45 45 44 44 43 43 42 41 40 39 38 37 36 35 34 32 31 31 30 30 30 29 29 29 28 27 27 27 27 28
43 43 43 43 43 43 44 44 44 44 44 44 44 43 43 42 42 41 40 39 38 38 37 36 35 34 33 32 31 30 30 30 30 30 29 29 28 28 28 28 28 29 29
42 42 42 42 43 43 44 44 44 43 43 43 42 41 40 40 39 39 38 37 36 35 34 34 33 32 31 30 30 30 30 30 29 29 29 28 28 29 29 29 30 30 31
42 42 42 42 42 42 42 42 42 41 41 40 40 39 39 38 38 37 36 35 34 34 33 32 31 30 30 29 29 30 30 29 29 29 29 29 29 30 31 31 31 32 33
42 42 41 41 41 41 40 39 39 38 38 37 37 37 36 36 35 35 34 33 33 32 31 30 29 29 29 29 29 29 29 29 29 29 29 30 31 31 32 32 33 33 34
42 41 41 40 39 39 38 37 36 35 35 34 34 34 34 33 33 32 32 31 30 30 29 29 29 29 29 29 29 29 29 29 30 30 30 31 31 32 32 33 34 34 35

GEFSMA_500_meanwind_084.txt.gz
Wind_Speed
21 21 21 21 21 21 21 21 20 20 20 20 21 21 22 22 22 23 24 24 25 25 26 27 28 29 30 31 32 33 34 33 33 33 33 33 32 32 31 31 31 31 30
22 22 22 22 22 22 23 23 23 23 23 23 24 24 25 25 25 26 27 27 27 28 29 29 30 31 33 33 34 35 35 35 35 35 34 33 33 32 32 31 32 31 31
23 23 24 24 24 24 25 25 25 26 26 26 27 27 27 28 28 29 29 30 30 31 31 32 33 34 35 35 36 37 37 37 37 36 35 34 33 33 32 32 32 32 31
24 24 24 25 25 25 25 26 27 28 28 29 30 30 30 31 31 32 32 33 33 34 34 34 35 36 36 37 38 38 38 38 38 37 36 35 34 33 33 33 33 32 31
25 25 26 26 25 26 27 28 29 30 30 31 32 32 33 33 34 35 35 36 36 36 36 37 38 38 39 39 40 40 39 39 39 38 37 36 35 34 34 33 33 32 31
27 27 27 27 27 28 28 29 31 32 33 34 34 34 35 36 37 37 38 39 39 39 39 40 41 41 41 41 41 41 40 39 39 38 37 36 35 35 35 34 33 32 31
29 29 30 30 30 30 31 32 33 34 35 36 36 36 37 38 39 40 40 41 41 42 42 42 42 42 43 42 42 41 41 40 39 39 37 37 36 36 35 35 34 32 31
31 31 32 33 33 33 33 34 35 36 37 38 38 39 39 39 40 41 42 43 44 44 44 43 43 44 44 43 43 42 42 41 39 39 38 37 37 36 35 35 34 33 31
34 34 34 34 34 34 34 36 36 38 38 39 40 41 42 41 41 41 42 43 44 44 44 45 45 45 44 44 44 44 43 42 40 39 39 38 38 37 35 34 33 32 31
35 34 34 35 35 35 36 37 38 39 40 41 43 44 44 45 44 42 41 43 44 45 45 46 46 46 46 45 45 44 43 42 41 40 40 39 38 37 35 34 33 32 31
36 36 36 37 37 38 39 40 40 40 41 42 43 44 44 44 45 45 44 44 45 46 46 46 46 47 46 46 45 44 43 42 41 40 40 39 38 37 36 34 33 32 30
37 37 38 39 40 41 41 41 42 42 43 44 44 45 46 46 47 48 48 47 47 47 47 47 47 47 47 46 45 44 43 42 41 41 40 39 38 37 35 34 33 31 30
40 40 40 41 42 42 43 44 45 45 46 46 47 48 49 49 50 50 50 49 48 48 48 48 48 47 47 45 44 43 42 42 42 41 40 39 38 36 35 34 32 31 30
42 43 44 44 45 45 47 48 48 48 48 49 49 50 50 50 50 50 50 50 49 48 48 48 47 47 47 46 45 44 43 43 42 41 40 38 37 36 34 33 31 30 29
45 46 47 47 47 48 49 49 49 49 49 49 50 50 50 51 50 50 50 50 50 49 48 48 48 47 47 46 45 45 44 43 42 41 39 38 37 35 33 32 31 30 29
46 46 47 48 48 49 50 50 51 51 51 50 51 51 51 51 51 51 51 51 51 50 49 48 47 47 47 46 46 45 44 43 41 40 38 37 36 34 32 31 30 29 28
47 48 48 49 49 49 50 50 51 51 51 52 51 51 52 52 52 51 51 51 50 50 49 48 47 47 47 46 45 44 43 41 40 39 37 36 35 33 31 30 28 28 27
49 49 50 50 50 51 51 52 52 52 51 51 51 51 51 51 51 51 50 50 49 49 48 47 46 46 46 45 43 42 41 39 38 36 35 34 33 31 29 28 28 27 26
50 50 51 51 51 51 51 51 51 51 50 51 51 51 50 50 50 49 49 48 48 47 46 45 44 44 43 42 41 40 38 37 36 34 33 32 30 29 28 28 27 26 26
50 50 50 50 49 49 49 48 48 48 48 48 48 48 48 48 48 48 47 46 46 45 44 44 42 42 41 40 39 38 37 36 34 33 32 30 29 29 28 27 27 26 26
49 48 48 47 47 47 46 46 46 46 46 46 47 47 48 48 47 46 46 45 45 44 43 42 41 40 39 38 37 37 35 34 33 32 30 29 28 28 27 27 27 26 26
46 46 46 46 46 46 46 46 46 45 45 46 46 46 45 45 45 45 44 44 43 42 41 40 39 38 37 36 35 35 33 32 31 30 29 28 27 27 27 27 26 26 26
46 46 45 45 45 45 45 45 45 44 45 45 44 44 44 43 43 42 42 41 41 40 39 38 37 36 35 34 33 33 32 31 30 29 28 28 27 27 27 27 26 26 25
46 45 45 45 45 45 45 45 45 45 45 45 44 44 43 42 41 41 40 39 38 37 36 35 34 34 33 32 32 31 30 30 29 29 28 28 27 27 26 26 26 26 26
46 45 45 45 45 45 45 45 45 45 45 44 44 43 42 41 40 39 37 36 35 34 34 33 32 32 31 30 30 30 29 29 28 28 27 27 26 26 26 26 26 26 26
46 46 46 46 46 45 45 45 45 44 44 43 43 42 41 40 38 37 36 34 33 32 32 31 30 30 29 29 29 29 28 28 28 27 27 26 26 26 26 27 27 27 27

GEFSMA_500_meanwind_090.txt.gz
Wind_Speed
31 29 28 27 26 25 24 24 23 23 22 22 22 22 22 22 23 23 23 24 25 25 26 27 28 29 30 31 31 32 32 33 33 34 34 34 34 34 33 32 32 30 29
32 31 29 28 28 26 26 25 25 25 25 24 24 24 24 24 25 25 25 26 27 28 29 30 30 31 32 32 33 34 34 35 35 35 36 36 35 34 34 33 32 31 30
34 33 31 30 29 28 27 27 27 27 26 26 26 26 26 26 27 27 28 29 29 30 31 32 32 33 34 34 35 36 36 37 37 37 37 36 36 35 34 33 33 32 31
36 34 33 32 30 29 29 29 29 28 28 28 28 28 28 28 29 30 30 31 32 32 33 34 34 35 36 36 37 37 38 38 39 38 37 37 37 36 35 34 33 32 32
38 36 34 33 32 31 31 31 30 29 29 29 29 29 30 30 31 32 33 33 34 34 35 35 36 37 37 38 39 39 39 40 39 39 38 38 38 37 36 35 34 33 32
39 37 35 34 33 33 32 32 31 31 31 31 31 31 31 32 32 33 34 35 36 36 37 37 38 39 39 40 40 40 40 40 40 40 40 39 38 38 37 36 36 34 33
40 37 37 36 35 34 34 33 33 33 32 32 32 33 33 33 34 35 36 36 37 38 38 39 40 40 40 40 41 41 41 41 41 41 41 41 40 39 38 37 36 35 34
40 38 37 37 37 37 36 35 35 34 34 34 33 33 33 34 35 36 36 37 38 39 40 40 41 41 41 41 42 42 43 43 43 43 43 42 41 40 39 38 37 36 35
41 40 40 40 39 37 36 36 36 35 35 35 34 33 34 35 35 36 37 38 39 40 40 41 41 42 42 43 44 44 44 45 45 44 43 43 42 41 40 38 37 37 36
43 41 40 40 39 37 36 36 36 36 36 34 34 34 35 35 36 36 36 37 39 40 41 42 42 43 44 45 46 45 45 45 45 45 44 43 42 41 40 38 38 37 36
43 42 41 40 39 37 36 36 36 34 33 33 34 34 35 36 36 37 37 39 41 42 44 44 44 45 46 47 47 47 47 46 46 45 44 43 42 41 40 39 38 37 36
41 40 40 40 39 38 37 37 36 34 33 34 35 36 37 38 39 40 40 42 43 43 45 45 46 47 47 47 47 47 47 47 46 45 45 44 42 41 40 39 38 37 36
40 41 41 40 39 37 37 36 36 35 34 35 37 38 39 40 40 41 42 43 44 45 46 46 47 47 48 47 47 47 47 47 46 45 44 43 42 41 40 39 38 37 36
36 37 37 37 37 37 36 36 35 35 36 37 38 39 40 41 42 43 44 45 46 46 46 47 47 48 48 48 48 48 47 47 46 45 44 43 42 42 41 39 38 37 36
35 36 36 36 37 38 38 37 37 38 39 40 41 42 43 44 45 45 46 47 47 47 46 47 48 48 49 48 48 47 46 46 46 45 44 43 42 41 40 38 37 36 35
34 35 36 37 37 38 39 40 41 41 42 43 44 44 45 46 46 47 47 47 47 47 47 47 48 48 48 47 47 46 45 45 44 44 43 42 41 39 38 36 36 35 34
36 36 37 37 38 40 41 42 42 44 44 44 45 45 46 46 46 47 47 47 47 48 47 47 47 47 46 46 45 44 44 43 42 42 41 40 38 37 36 35 34 33 32
38 40 41 41 41 42 43 43 44 45 46 46 47 46 46 46 47 47 47 47 47 46 46 45 45 45 45 44 44 43 43 42 41 40 39 38 37 35 34 33 32 31 31
42 43 44 44 44 44 45 45 45 45 45 46 46 46 46 46 46 46 46 45 45 45 45 44 44 43 43 43 43 42 41 41 40 38 37 36 35 34 32 32 31 30 30
44 45 45 46 45 45 45 45 46 46 45 45 45 45 45 45 45 44 44 44 44 44 43 43 43 42 42 42 41 41 40 39 38 37 36 34 33 31 30 29 29 29 28
46 47 47 47 47 47 47 46 46 46 45 45 45 44 44 44 43 43 43 43 43 42 42 42 42 41 41 40 39 38 38 37 36 35 33 32 31 30 29 28 28 27 27
48 48 48 48 48 48 47 47 46 46 45 44 44 44 43 43 43 43 42 42 42 41 41 41 41 40 39 38 37 36 35 34 33 32 31 30 29 28 28 27 26 25 25
49 49 49 48 48 47 47 46 46 46 45 44 44 44 43 43 42 42 42 42 41 41 40 40 39 38 37 36 35 34 33 32 31 30 29 28 27 27 27 26 25 25 25
50 49 49 49 48 47 47 47 46 46 45 45 45 44 43 42 42 42 41 41 41 40 39 38 38 36 35 35 34 33 32 31 30 29 28 27 26 26 26 25 25 25 25
50 50 49 49 48 48 48 47 47 46 46 45 45 44 44 43 42 41 41 41 40 39 38 37 36 35 34 33 32 31 30 30 29 27 27 26 25 25 25 25 25 25 24
50 50 50 49 49 48 48 47 47 46 46 46 45 44 44 43 42 41 41 40 39 38 37 35 34 33 32 32 31 30 29 28 27 26 26 25 24 24 24 24 24 24 24

GEFSMA_500_meanwind_096.txt.gz
Wind_Speed
39 37 35 34 33 31 30 28 27 27 26 25 25 24 23 23 22 22 23 23 23 23 24 24 25 25 26 27 28 29 30 30 31 32 33 33 34 34 34 34 34 34 33
41 39 37 36 34 33 32 30 29 28 27 27 27 26 25 25 25 24 24 25 25 25 26 26 27 27 28 29 30 31 31 32 32 33 34 34 35 35 34 35 35 35 34
43 41 39 38 36 35 34 32 31 30 29 29 28 27 27 27 26 26 26 27 27 27 28 28 29 29 30 31 31 32 33 33 34 34 34 35 35 35 36 36 36 36 36
45 43 41 40 38 37 35 34 33 32 31 30 30 29 29 29 28 28 28 28 29 29 30 30 30 31 32 32 32 33 33 34 34 34 35 35 36 37 37 38 38 38 38
47 45 43 42 41 39 37 36 35 34 33 32 31 30 30 31 30 30 30 30 30 31 31 31 32 32 32 33 33 33 34 35 35 35 36 37 38 38 39 39 40 39 39
48 46 45 44 43 41 40 39 37 36 34 33 32 32 32 32 32 32 32 32 32 32 32 32 32 32 32 33 33 34 34 35 36 37 38 39 40 40 41 41 41 41 40
49 48 46 46 45 43 41 41 39 38 36 35 34 34 34 33 33 34 34 34 33 33 33 33 33 33 33 33 33 34 35 36 37 38 40 41 42 43 43 43 43 42 41
50 49 48 47 45 43 43 42 41 39 37 36 36 35 35 35 35 35 35 35 35 34 34 34 33 33 33 33 34 35 36 37 38 40 41 43 44 44 45 45 43 42 41
52 51 50 48 47 45 44 43 41 40 38 37 37 37 37 36 36 36 36 36 35 34 33 33 33 33 33 34 36 37 38 39 41 42 43 44 44 45 45 45 44 42 41
52 52 50 49 48 46 44 44 43 42 39 38 37 37 37 37 37 36 36 35 35 34 34 34 34 34 34 36 37 38 39 41 43 44 45 45 46 46 46 45 45 43 42
47 48 49 49 48 47 46 44 43 42 40 39 38 37 37 37 37 37 36 36 36 36 35 35 35 35 36 37 38 40 41 43 44 45 46 47 47 47 47 46 45 44 42
45 46 48 48 47 47 45 44 43 42 41 41 39 40 39 38 39 38 37 36 35 35 35 35 35 36 37 38 40 41 43 44 45 46 47 48 48 48 48 46 45 43 42
44 45 46 46 45 45 44 44 43 42 41 41 41 41 40 40 39 39 37 36 35 35 35 36 37 38 39 40 41 43 44 46 47 48 48 48 48 48 47 46 44 42 41
42 43 43 44 45 45 44 44 44 43 43 44 44 43 42 40 39 38 37 37 36 36 36 38 39 40 41 42 43 45 46 48 48 48 49 49 48 48 47 46 44 42 41
40 41 41 42 42 43 43 44 44 44 44 45 44 43 42 40 39 38 37 37 37 38 39 40 41 42 43 44 46 47 48 48 48 48 48 48 48 47 46 44 43 41 40
39 42 43 42 42 42 42 44 44 43 43 44 44 43 41 40 39 38 39 40 40 40 41 42 43 44 45 46 47 47 48 48 48 48 48 47 47 46 44 43 42 40 38
33 35 37 38 40 42 43 43 42 41 42 43 43 42 41 40 40 40 41 41 42 42 43 44 45 46 47 48 48 47 47 47 47 47 47 47 46 44 43 42 40 38 36
34 35 36 37 38 40 40 41 41 41 41 43 44 43 42 43 43 43 43 44 45 45 46 46 46 47 47 47 46 46 46 46 46 46 46 45 43 41 40 39 38 36 35
33 34 35 36 37 38 39 39 40 40 41 42 43 44 44 44 44 45 45 46 47 47 47 47 47 46 46 45 45 45 45 45 45 44 43 42 41 40 39 37 36 34 33
32 34 35 36 38 39 40 41 43 44 44 44 45 46 46 46 46 46 46 47 47 47 48 47 46 45 45 45 45 44 43 43 42 42 41 41 39 38 37 35 34 32 31
36 37 38 40 41 42 44 45 46 47 48 48 48 48 48 48 47 48 48 47 47 47 47 46 45 45 44 44 43 43 42 41 41 40 39 38 38 36 35 34 32 30 29
41 43 44 44 45 46 48 49 49 50 50 49 49 49 50 50 49 48 48 47 46 46 46 45 45 44 44 44 43 42 41 40 40 40 39 37 36 34 33 31 30 28 27
45 46 47 48 49 50 50 51 51 51 51 51 50 50 50 49 49 48 47 47 46 46 46 45 45 44 44 43 42 41 40 40 39 38 37 35 34 33 31 30 28 27 26
50 50 51 51 52 52 53 53 52 52 51 51 51 50 49 49 49 49 47 47 46 46 45 45 44 44 44 43 42 40 40 39 38 37 36 34 32 31 30 28 27 26 25
53 53 54 54 54 54 54 54 53 53 52 51 51 51 51 50 49 49 48 48 47 46 45 45 44 44 43 42 41 40 39 38 37 36 34 32 31 30 29 28 26 25 24
56 56 55 54 54 54 54 54 53 53 52 52 52 51 51 50 50 49 48 48 48 46 46 45 44 43 42 41 40 39 38 37 36 35 33 32 30 29 28 27 26 25 24

GEFSMA_500_meanwind_102.txt.gz
Wind_Speed
44 42 40 39 37 35 34 33 31 30 28 28 27 26 26 26 25 25 25 25 25 25 25 25 25 25 26 26 27 27 28 28 28 29 29 30 30 30 30 31 32 33 34
47 45 43 41 39 38 36 35 34 32 31 29 29 28 28 28 27 27 27 26 27 27 27 27 27 27 27 28 28 29 29 29 29 29 29 29 30 30 30 31 33 35 36
49 47 45 43 42 40 39 37 36 34 33 32 31 30 30 29 29 29 28 28 28 28 28 28 29 29 29 29 29 30 30 30 30 29 30 30 29 30 31 33 34 36 37
52 49 48 46 44 43 41 39 38 36 35 34 34 33 32 31 30 30 30 30 30 30 30 30 30 30 30 30 31 31 31 31 30 30 30 30 30 31 32 34 35 36 38
54 52 50 48 46 45 43 41 40 38 38 37 36 35 34 33 32 32 32 32 32 32 31 32 32 32 32 32 31 31 32 31 31 31 30 30 31 32 33 35 36 37 39
54 54 52 51 48 47 45 44 42 41 40 39 38 38 37 35 34 34 34 33 34 33 33 33 33 33 32 32 32 33 32 31 31 30 30 31 32 33 34 36 38 39 40
55 54 53 53 51 49 48 46 45 44 43 42 41 40 39 38 37 36 36 36 36 35 35 34 34 34 34 34 34 33 31 31 31 31 31 32 33 34 36 38 39 40 41
55 53 53 53 52 51 50 50 48 47 46 44 43 42 41 39 38 38 38 37 38 37 36 35 35 35 35 35 34 33 32 32 32 33 33 33 34 36 37 40 41 41 42
52 52 52 53 54 54 52 51 51 49 48 46 44 43 42 41 41 41 39 39 38 38 37 36 36 36 36 35 35 34 34 34 34 34 34 35 35 37 39 41 42 43 44
49 50 50 52 53 54 54 52 52 50 49 47 45 44 43 42 41 40 39 38 38 38 38 37 37 37 36 36 36 36 36 35 35 35 36 36 37 39 41 42 43 45 45
50 52 50 50 50 51 51 51 50 49 49 48 47 45 44 43 43 42 40 40 39 39 39 38 38 38 38 38 38 38 38 37 37 37 37 38 40 41 42 44 45 46 46
48 51 52 50 49 49 49 49 48 47 48 47 46 46 45 44 44 43 41 41 41 40 40 40 40 40 40 40 40 40 39 39 38 39 39 40 41 43 44 46 47 47 47
45 47 49 49 49 50 49 49 47 47 47 46 46 46 46 45 43 41 41 41 42 42 42 42 42 43 43 43 42 42 41 40 40 40 41 42 43 44 46 46 47 47 47
44 44 47 47 46 45 46 46 47 47 48 48 47 47 46 45 44 43 42 43 43 44 44 44 45 46 45 44 44 44 43 43 42 42 43 43 44 45 46 47 47 47 47
42 43 44 42 42 42 42 44 45 45 46 45 46 46 45 45 46 46 46 46 46 46 47 47 47 47 46 45 45 45 44 44 44 44 44 45 45 46 47 47 47 47 46
37 39 42 42 42 42 42 43 44 45 46 46 47 47 48 48 47 48 48 48 49 49 49 47 47 45 45 45 45 46 46 45 45 45 46 46 46 47 46 47 46 46 45
33 34 36 38 40 41 44 45 46 46 47 48 48 48 48 48 48 49 50 50 51 51 49 47 47 47 47 46 46 46 47 47 47 47 47 47 47 47 46 46 45 45 43
32 34 35 37 39 41 43 44 46 47 47 47 48 48 48 49 50 51 52 51 50 50 49 50 49 49 48 48 48 48 48 49 48 48 47 47 47 46 46 45 44 43 41
31 33 35 37 39 40 41 43 45 47 48 50 51 51 52 53 53 53 53 51 51 50 50 51 51 50 50 50 50 50 50 49 49 48 48 48 47 45 44 43 42 41 40
30 33 36 38 40 42 43 45 47 48 49 50 52 53 52 52 52 53 53 52 52 52 52 52 51 51 51 51 51 51 50 49 48 48 48 47 45 44 43 41 41 40 39
29 32 35 37 39 41 44 45 47 47 48 49 50 51 52 53 53 53 54 54 54 54 53 53 53 52 51 51 51 51 50 49 48 47 47 45 44 43 42 41 40 39 37
29 32 35 38 40 42 44 46 48 49 50 51 52 54 54 55 56 56 57 57 57 56 56 56 55 54 53 52 52 51 49 48 47 47 46 44 43 42 41 40 39 38 36
32 35 38 41 44 45 47 48 50 52 53 54 54 55 55 57 58 58 59 60 59 59 58 57 56 56 54 53 52 50 49 48 47 46 45 44 43 42 41 40 38 37 35
37 39 42 45 47 49 51 51 52 54 54 55 56 57 57 58 60 60 61 61 60 60 59 58 57 56 54 53 52 51 50 48 47 46 45 43 42 41 40 38 37 35 33
44 46 48 50 52 54 56 56 57 57 58 58 59 59 60 60 61 62 62 62 62 61 61 59 58 55 53 52 51 50 49 48 46 45 44 42 42 41 39 37 35 33 32
51 53 54 55 57 58 58 59 60 61 60 60 60 60 61 62 63 63 63 62 62 61 60 59 58 56 54 52 51 49 48 47 46 44 43 42 41 39 37 36 34 32 31

GEFSMA_500_meanwind_108.txt.gz
Wind_Speed
45 45 44 42 41 39 38 36 34 32 31 30 29 28 27 27 26 26 25 25 25 25 26 26 26 27 27 27 28 28 29 28 28 28 28 27 27 28 28 27 27 27 28
47 46 46 45 44 42 40 39 37 35 33 32 31 30 29 28 28 28 27 27 27 27 27 27 28 29 29 29 30 30 30 30 29 29 29 28 29 29 28 28 27 28 29
47 47 47 47 46 45 43 42 41 38 36 35 33 33 32 31 30 30 30 29 29 29 29 29 30 30 30 31 31 31 31 31 31 30 29 30 30 30 29 29 28 29 30
49 48 48 48 47 47 46 44 43 41 39 37 36 35 34 33 33 32 32 32 32 31 31 32 32 32 32 32 32 33 33 32 32 31 31 31 31 30 30 30 30 30 32
49 48 48 48 49 49 49 47 45 43 42 40 39 38 36 35 35 35 35 34 34 34 34 34 34 34 34 34 34 35 34 34 34 33 33 33 32 31 31 31 32 33 34
49 49 49 49 50 50 50 49 47 46 45 43 42 41 40 39 38 37 37 36 36 36 36 36 36 36 37 37 37 36 35 35 35 34 34 34 33 33 33 33 34 35 36
49 50 50 51 50 50 50 50 49 48 47 46 45 43 43 42 40 40 40 40 39 39 38 38 38 38 39 39 39 38 37 37 36 36 35 35 35 35 35 35 35 36 37
50 50 50 50 50 51 51 52 51 50 49 48 47 46 45 44 43 42 42 41 41 41 40 40 41 41 40 40 40 39 39 39 38 38 37 36 36 36 36 37 37 38 39
51 50 50 50 50 50 50 51 51 50 50 50 49 48 47 46 45 44 43 43 43 42 42 41 42 42 42 42 42 41 40 40 39 39 38 37 37 37 38 38 38 39 40
52 51 51 51 50 49 49 49 49 49 50 50 49 49 48 48 47 47 45 45 45 45 44 43 43 43 43 43 42 41 40 40 40 39 39 38 39 39 39 40 40 41 41
54 53 52 51 51 50 50 50 49 49 49 50 50 49 50 50 50 49 47 46 46 45 44 44 44 44 44 44 43 43 42 41 41 40 40 40 41 41 41 41 42 43 43
54 53 51 50 50 49 49 50 50 50 51 51 52 51 51 51 49 49 48 47 46 45 45 45 45 45 45 44 45 45 43 43 42 42 42 42 43 43 43 43 43 44 44
53 51 50 50 50 50 49 50 51 50 51 52 52 51 51 51 50 50 49 48 48 47 47 46 46 46 45 45 46 46 45 45 45 45 45 44 44 44 44 44 45 45 45
50 49 48 48 49 49 49 50 50 51 51 52 51 50 50 50 49 49 50 50 49 48 47 47 47 46 45 46 45 46 46 46 46 46 45 46 46 46 46 46 45 45 45
48 46 45 45 45 47 47 47 47 50 51 51 52 51 50 48 47 48 50 50 49 49 48 47 47 47 47 47 46 47 47 47 47 46 46 47 47 47 47 47 46 46 46
47 45 44 44 44 44 44 46 47 49 49 49 50 50 50 49 50 50 50 51 51 51 49 48 49 48 47 48 48 48 48 49 49 49 48 48 47 47 47 47 47 46 46
43 43 43 43 44 44 45 46 47 48 47 47 48 50 51 51 51 51 52 53 52 52 52 51 50 49 49 50 50 50 50 50 51 51 50 49 48 48 48 48 48 47 47
38 40 40 40 41 42 44 45 46 46 46 47 48 49 51 51 52 53 55 55 54 53 53 52 52 52 51 51 51 52 51 52 53 52 52 51 50 50 49 49 48 47 47
33 33 34 35 37 39 41 42 43 45 46 47 48 50 51 52 53 54 55 55 55 54 55 54 53 53 52 52 53 53 53 54 54 54 53 52 51 51 49 48 47 47 47
28 29 31 33 35 36 39 41 43 45 45 46 48 51 52 53 54 55 56 56 56 56 57 56 55 54 55 55 55 55 55 55 55 54 54 53 52 51 50 48 48 47 46
26 27 29 31 34 36 38 40 42 44 45 47 50 52 53 53 55 56 57 58 58 59 59 59 58 57 57 58 58 58 57 55 55 55 54 54 52 50 49 48 47 46 44
25 28 30 32 35 37 39 42 44 46 47 49 51 53 54 56 58 58 60 60 61 60 60 60 60 60 59 59 60 59 57 56 55 55 54 53 52 50 49 48 46 44 42
26 28 30 33 35 38 41 43 45 47 49 51 54 56 57 59 61 61 62 62 63 63 63 62 62 61 60 60 60 60 59 59 57 56 55 54 53 51 49 47 45 43 42
28 30 33 35 38 41 44 46 48 50 52 55 57 59 61 62 63 64 64 65 65 65 66 65 64 63 63 64 63 61 61 61 60 58 56 54 53 51 50 48 45 43 41
34 36 37 40 42 45 48 50 53 55 57 60 62 64 65 66 67 68 68 69 68 69 69 68 67 67 67 66 64 63 62 61 59 58 57 54 52 50 48 45 44 42 40
39 42 44 46 48 50 53 56 58 60 62 63 64 65 66 67 68 69 70 70 69 69 69 69 69 68 67 66 65 63 61 60 58 56 55 53 51 48 46 44 42 41 40